Flag for Germany Weather past 2 weeks in Gummersbach, North Rhine-Westphalia, Germany

Now
64 °F

Partly sunny.


Feels Like: 64 °F
Forecast: 50 / 64 °F
Wind: 6 mph from Northwest

Location: Koeln / Bonn

Current Time: May 23, 2015 at 1:17:33 PM

Latest Report: May 23, 2015 at 12:20 PM


Visibility: N/A

Pressure: 30.15 "Hg

Humidity: 56%

Dew point: 48 °F

Location of GummersbachLocation

Historic Weather in Gummersbach — Graph

°F

Gummersbach temperature yesterday

Maximum temperature yesterday: 68 °F (at 1:50 PM)
Minimum temperature yesterday: 48 °F (at 2:50 AM)
Average temperature yesterday: 58 °F

Past Weeks' High & Low Weather Summary

 TemperatureHumidityPressure
High79 °F (May 11, 4:50 PM)94% (May 15, 7:20 AM)30.36 "Hg (May 15, 7:20 AM)
Low39 °F (May 17, 4:50 AM)26% (May 14, 3:50 PM)29.65 "Hg (May 18, 7:20 PM)
Average57 °F62%30.07 "Hg
* Reported May 8 11:20 AM — May 23 11:50 AM, Gummersbach, Weather by CustomWeather, © 2015

Note: Actual official high and low records may vary slightly from our data, if they occured in-between our weather recording intervals... More about our weather records

Advertising

Gummersbach weather history for previous 24 hours

 ConditionsComfort  
Time TempWeatherWind HumidityBarometerVisibility
11:50 AM
Sat, May 23
63 °FPartly sunny.5 mph59%30.15 "HgN/A
11:20 AM63 °FSunny.3 mph59%30.18 "Hg10 mi
10:50 AM61 °FSunny.3 mph59%30.18 "Hg10 mi
10:20 AM59 °FSunny.5 mph68%30.18 "Hg10 mi
9:50 AM57 °FSunny.3 mph72%30.18 "Hg10 mi
9:20 AM55 °FSunny.1 mph77%30.18 "Hg10 mi
8:50 AM54 °FSunny.2 mph82%30.18 "Hg10 mi
8:20 AM54 °FSunny.2 mph82%30.18 "Hg10 mi
7:50 AM52 °FSunny.2 mph82%30.18 "Hg10 mi
7:20 AM50 °FSunny.2 mph88%30.18 "Hg10 mi
6:50 AM50 °FSunny.2 mph88%30.18 "Hg10 mi
6:20 AM48 °FClear.1 mph87%30.15 "Hg10 mi
5:50 AM48 °FClear.3 mph87%30.15 "Hg10 mi
5:20 AM46 °FClear.3 mph87%30.15 "Hg10 mi
4:50 AM48 °FClear.5 mph82%30.15 "Hg10 mi
4:20 AM46 °FClear.1 mph87%30.15 "Hg10 mi
3:50 AM45 °FClear.5 mph87%30.18 "Hg10 mi
3:20 AM46 °FClear.5 mph87%30.18 "Hg10 mi
2:50 AM46 °FClear.1 mph82%30.18 "Hg10 mi
2:20 AM48 °FClear.5 mph82%30.18 "Hg10 mi
1:50 AM48 °FClear.3 mph82%30.18 "Hg10 mi
1:20 AM48 °FClear.1 mph82%30.18 "Hg10 mi
12:50 AM50 °FClear.1 mph76%30.18 "Hg10 mi
12:20 AM52 °FClear.3 mph72%30.18 "Hg10 mi
11:50 PM
Fri, May 22
52 °FClear.5 mph72%30.18 "Hg10 mi
11:20 PM54 °FClear.3 mph67%30.18 "Hg10 mi
10:50 PM55 °FClear.5 mph63%30.21 "Hg10 mi
10:20 PM55 °FSunny.1 mph63%30.21 "Hg10 mi
9:50 PM57 °FSunny.3 mph59%30.18 "Hg10 mi
9:20 PM59 °FSunny.3 mph55%30.18 "Hg10 mi
8:50 PM63 °FSunny.6 mph45%30.18 "Hg10 mi
8:20 PM64 °FSunny.7 mph43%30.18 "Hg10 mi
7:50 PM64 °FSunny.6 mph43%30.18 "Hg10 mi
7:20 PM66 °FSunny.8 mph37%30.18 "Hg10 mi
6:50 PM68 °FPassing clouds.6 mph35%30.18 "HgN/A
6:20 PM68 °FSunny.8 mph33%30.18 "Hg10 mi
5:50 PM68 °FSunny.5 mph35%30.21 "Hg10 mi
5:20 PM68 °FSunny.2 mph30%30.21 "Hg10 mi
4:50 PM68 °FSunny.3 mph33%30.21 "Hg10 mi
4:20 PM68 °FPassing clouds.5 mph33%30.24 "HgN/A
3:50 PM66 °FSunny.7 mph32%30.24 "Hg10 mi
3:20 PM68 °FPassing clouds.6 mph30%30.24 "HgN/A
2:50 PM68 °FPassing clouds.5 mph30%30.24 "HgN/A
2:20 PM68 °FPassing clouds.7 mph33%30.27 "HgN/A
1:50 PM68 °FSunny.3 mph30%30.27 "Hg10 mi
1:20 PM64 °FPassing clouds.5 mph32%30.27 "HgN/A
Weather by CustomWeather, © 2015

See weather overviewHow to use our weather pages